Wind_Speed
15 16 18 25 19 20 25 28 30 32 27 32 23 27 28 29 32 31 25 27 26 26 26 25 25 24 29 34 32 31 32 32 32 23 19 20 18 13 0 12 17 18 17
11 15 12 9 15 18 20 24 24 25 22 23 29 32 24 28 29 28 28 29 28 26 29 28 22 24 29 30 33 33 32 32 37 35 25 20 10 13 12 13 11 10 12
3 4 8 12 17 20 19 24 24 25 25 25 24 25 27 31 29 28 30 28 27 30 30 24 23 23 28 28 29 27 30 30 28 29 24 25 15 15 14 11 14 12 8
4 5 9 13 17 18 17 19 23 24 23 23 24 26 29 29 29 31 30 29 30 30 28 22 21 19 26 23 16 18 19 15 17 16 24 15 14 11 11 12 14 13 14
7 9 11 15 18 20 22 22 23 26 26 25 22 25 28 31 30 31 30 29 27 26 23 22 18 18 16 14 11 11 12 9 8 7 6 5 8 7 5 5 5 8 11
13 15 17 20 22 24 24 26 28 26 24 25 25 24 29 30 30 30 29 27 27 24 21 17 14 10 7 7 9 7 4 8 9 4 4 5 8 11 11 12 10 8 7
18 20 22 22 23 23 23 25 26 27 24 24 24 25 28 30 28 27 28 21 24 22 18 16 12 12 7 3 3 4 6 6 6 6 8 10 9 11 10 8 7 5 4
17 19 21 23 25 27 27 25 23 28 25 26 24 25 26 28 28 27 20 21 23 20 18 13 12 13 7 4 3 2 6 7 7 7 8 8 7 6 5 4 3 3 2
17 20 23 26 29 30 31 31 29 25 25 26 26 24 26 26 28 24 22 26 19 19 18 18 17 15 10 12 11 9 4 8 10 5 6 6 5 5 4 6 5 5 3
23 25 25 26 27 27 28 29 32 30 25 26 24 21 24 24 24 20 24 25 21 22 21 19 20 14 15 14 14 10 6 7 4 5 6 6 6 6 9 9 9 4 2
21 21 23 24 25 25 29 26 29 28 29 24 22 21 25 24 24 19 24 22 23 22 22 22 21 16 20 17 13 13 13 8 6 5 11 11 12 9 5 4 7 10 9
19 21 21 21 22 22 22 20 23 24 22 22 21 20 20 19 18 17 25 26 20 19 17 20 18 16 18 19 16 14 11 13 9 7 9 8 10 13 5 4 5 3 3
22 23 22 22 24 21 19 18 18 18 17 19 16 19 19 13 15 18 27 25 22 21 18 12 12 13 13 13 13 16 13 7 9 9 9 10 11 10 7 2 6 7 5
22 23 23 23 25 21 17 14 13 9 9 10 16 16 22 20 18 21 20 19 20 21 18 17 15 16 14 17 18 11 10 12 11 12 10 7 3 5 5 2 4 2 2
19 22 22 17 19 21 18 16 12 4 5 8 13 19 24 22 22 19 18 18 14 15 13 20 21 15 16 14 10 5 7 10 7 8 5 6 6 5 4 2 2 3 4
16 19 20 17 16 15 15 17 14 9 4 5 13 19 23 24 22 23 25 24 22 20 19 17 19 17 13 12 9 7 3 9 7 5 5 5 5 5 6 3 2 3 3
19 14 14 18 25 21 19 22 23 22 21 20 20 21 21 20 20 22 22 22 25 22 11 9 11 11 15 11 7 7 8 5 4 7 6 4 5 3 3 4 4 2 3
12 17 16 19 23 20 21 21 23 26 29 29 25 22 19 17 19 23 26 23 15 10 10 8 7 10 10 8 8 7 4 2 3 5 5 4 4 4 4 5 6 6 6
6 6 8 10 14 20 24 20 18 21 22 22 20 19 17 16 17 15 15 15 10 10 1 5 8 8 9 8 8 5 5 8 7 7 6 5 5 5 6 7 7 8 10
6 9 7 5 4 7 11 14 20 22 22 17 15 12 12 12 10 4 4 7 4 3 2 3 5 6 10 10 7 2 2 2 3 2 2 3 6 6 7 7 8 8 6
4 2 4 2 3 4 5 3 3 6 7 8 7 7 3 5 7 10 5 3 3 1 2 3 3 7 9 7 6 6 4 3 5 6 6 6 6 8 9 9 10 10 10
5 2 4 1 3 2 3 4 5 5 4 3 2 3 3 5 6 2 0 1 3 3 6 6 5 5 5 6 5 4 4 4 7 8 8 8 9 10 11 13 14 17 20
9 6 4 3 2 3 2 2 3 4 4 3 1 2 7 5 4 5 10 1 2 4 4 3 2 4 2 3 5 8 10 9 10 12 14 15 16 17 18 18 21 22 22
5 3 2 3 3 2 1 2 1 3 3 0 0 3 4 4 8 2 2 2 4 5 5 6 8 8 7 7 5 8 10 11 13 16 16 18 16 18 20 22 23 22 23
5 4 3 2 1 1 2 2 1 3 2 3 4 3 3 4 6 6 5 6 6 8 9 10 10 11 11 15 14 14 16 17 17 19 23 25 28 27 24 25 26 25 25
8 4 3 3 2 1 2 2 2 3 4 5 6 7 5 10 5 8 5 9 6 11 10 8 7 7 11 12 14 14 16 17 21 24 26 29 28 24 23 20 21 21 21
Wind_Direction
203 224 249 243 277 255 269 264 267 271 266 246 250 253 245 245 246 253 251 232 243 247 247 251 266 274 276 274 270 272 270 256 260 257 251 257 250 258 265 183 230 228 231
184 228 245 261 246 235 248 263 270 275 276 269 252 249 253 243 244 244 245 236 237 245 246 260 270 286 284 281 280 273 268 264 255 257 256 241 227 197 212 205 190 205 217
119 216 243 258 262 269 271 262 267 262 263 267 261 256 256 252 247 238 238 239 242 242 250 255 280 285 286 284 286 272 268 271 261 254 248 226 212 196 186 183 192 201 202
247 233 254 254 253 258 266 280 291 293 284 271 265 258 254 248 242 238 236 239 243 241 251 270 269 273 288 292 288 276 269 262 248 258 255 221 168 159 178 184 190 194 219
291 285 278 278 284 282 280 277 275 278 281 278 266 255 252 248 246 236 240 244 239 246 258 275 265 276 273 286 287 275 265 247 234 187 111 165 195 172 182 196 212 202 195
312 303 297 292 288 289 289 286 279 268 273 265 259 253 251 249 241 246 246 238 239 247 259 244 252 256 279 275 264 262 231 183 176 201 187 204 185 183 193 189 191 199 220
322 318 316 311 300 289 284 291 290 285 281 272 261 250 246 246 246 240 238 238 240 237 230 236 230 242 269 290 277 218 211 187 182 213 205 189 191 192 191 200 208 201 216
312 300 293 291 292 295 289 273 282 280 275 273 271 254 248 247 239 227 234 237 222 221 217 216 203 224 237 178 102 135 178 190 182 185 189 181 177 174 166 146 155 163 161
310 298 298 296 292 289 283 283 271 280 278 264 266 254 253 249 239 234 223 204 207 208 201 197 213 228 211 166 164 181 195 158 153 143 117 131 138 138 143 124 98 87 43
311 315 318 315 309 300 286 279 279 267 272 262 260 248 252 228 222 217 198 198 206 203 210 212 214 215 195 176 170 179 184 164 169 177 161 149 137 140 147 147 162 200 194
335 335 323 328 323 311 303 283 271 278 262 260 253 250 242 235 227 217 195 196 208 208 201 213 213 203 182 178 177 171 195 190 155 117 110 95 92 92 104 198 201 198 192
347 344 343 345 340 333 328 304 283 264 267 259 252 242 230 216 200 199 193 196 197 210 206 203 198 190 188 190 191 192 193 144 136 127 137 121 124 142 165 280 331 70 99
7 8 0 356 356 349 333 323 305 283 267 243 241 232 222 200 229 209 200 194 183 183 188 186 188 186 182 181 170 149 143 147 164 170 167 161 180 206 235 65 20 41 29
20 17 13 10 1 1 356 355 357 311 253 246 231 226 206 214 201 199 190 189 168 158 157 158 148 140 141 140 140 138 163 165 165 158 170 178 188 113 120 203 136 123 275
12 17 12 12 16 12 12 21 15 345 276 254 223 211 195 190 180 175 169 154 146 151 148 147 145 134 130 130 137 151 124 159 182 176 156 151 158 133 166 197 177 167 182
26 25 18 22 34 41 61 71 57 36 44 205 198 193 167 154 144 160 147 139 138 135 136 139 133 135 155 151 143 142 134 157 163 154 178 167 161 166 198 171 202 193 187
39 40 30 35 45 47 76 78 73 76 88 96 108 117 124 132 133 132 132 136 142 146 149 188 155 174 153 155 147 137 165 183 225 172 192 192 189 215 277 176 238 252 241
46 50 51 52 53 55 59 69 80 86 86 87 88 92 101 109 112 116 126 128 119 112 96 111 165 155 149 159 159 156 138 278 158 184 208 207 214 216 232 243 247 262 235
56 59 69 53 56 59 66 73 82 84 83 81 80 82 84 92 96 105 111 114 115 138 124 130 177 177 167 180 200 213 236 216 212 201 197 225 242 240 248 250 253 268 279
19 46 69 101 38 31 65 77 86 84 75 73 74 93 109 100 101 108 21 28 39 33 217 219 196 190 189 163 152 134 348 286 305 351 327 239 250 252 255 257 261 261 287
211 284 353 137 72 110 118 106 110 85 89 101 97 65 106 145 157 163 178 130 193 19 344 293 238 226 236 234 242 241 243 283 263 256 259 273 269 263 262 262 265 270 264
249 248 256 344 36 308 237 272 231 266 299 233 222 227 288 297 309 75 331 235 179 259 243 263 240 207 233 244 244 227 222 255 262 255 256 253 257 266 270 267 262 266 274
279 207 216 245 260 297 58 345 298 293 313 21 28 282 265 280 299 313 310 33 161 212 293 203 184 223 146 177 216 240 242 258 274 296 278 270 267 266 266 269 271 287 266
225 191 189 162 297 66 6 269 58 182 195 232 109 286 275 272 280 286 237 260 249 244 259 245 253 268 254 271 288 286 278 267 261 263 279 274 269 280 283 282 278 275 273
294 164 179 172 238 282 316 34 43 285 259 214 219 236 239 227 283 281 249 275 244 249 261 253 251 260 259 261 252 267 281 288 285 289 290 288 293 290 281 275 274 280 277
220 170 176 187 218 255 259 243 282 297 279 269 275 278 254 264 294 259 272 274 272 269 286 248 278 266 264 262 281 272 279 281 287 289 292 292 293 287 281 271 275 280 285
Height
1492 1493 1495 1495 1495 1497 1498 1500 1501 1498 1496 1497 1497 1498 1499 1498 1497 1498 1499 1503 1505 1506 1506 1506 1507 1507 1507 1505 1503 1502 1501 1500 1496 1498 1504 1504 1504 1503 1502 1502 1510 1513 1514
1492 1492 1492 1491 1492 1493 1495 1495 1494 1491 1489 1489 1489 1490 1492 1493 1493 1493 1494 1496 1499 1500 1500 1501 1500 1500 1497 1496 1493 1492 1493 1491 1491 1491 1497 1498 1497 1499 1498 1502 1506 1503 1508
1491 1492 1492 1491 1490 1489 1489 1488 1487 1485 1483 1482 1483 1483 1485 1485 1488 1488 1488 1491 1494 1494 1495 1495 1495 1493 1489 1488 1485 1483 1483 1482 1483 1485 1488 1488 1492 1492 1494 1498 1499 1502 1503
1487 1487 1487 1487 1486 1485 1483 1481 1478 1476 1474 1474 1475 1476 1478 1478 1480 1481 1482 1486 1488 1489 1489 1490 1488 1487 1489 1481 1479 1477 1477 1477 1479 1481 1475 1481 1484 1487 1492 1495 1498 1498 1501
1483 1483 1482 1481 1480 1478 1476 1474 1473 1470 1468 1467 1468 1470 1470 1470 1471 1473 1477 1479 1483 1484 1485 1484 1482 1482 1483 1479 1474 1474 1475 1477 1478 1480 1479 1477 1485 1487 1491 1494 1495 1498 1501
1479 1478 1477 1475 1473 1471 1469 1468 1465 1463 1463 1462 1462 1463 1464 1463 1465 1467 1470 1475 1478 1479 1480 1479 1479 1479 1480 1478 1475 1473 1474 1473 1476 1479 1481 1484 1485 1488 1491 1493 1495 1497 1498
1475 1473 1471 1469 1467 1465 1463 1461 1459 1457 1456 1455 1455 1456 1457 1458 1460 1461 1464 1469 1472 1472 1474 1475 1475 1474 1475 1477 1477 1474 1473 1475 1476 1478 1481 1483 1484 1486 1488 1491 1494 1495 1496
1473 1472 1469 1464 1460 1457 1455 1454 1454 1451 1450 1449 1449 1449 1450 1451 1454 1456 1459 1463 1466 1468 1471 1473 1473 1472 1472 1474 1475 1476 1475 1476 1476 1476 1477 1479 1482 1484 1486 1488 1490 1492 1494
1469 1466 1461 1457 1452 1449 1447 1445 1445 1443 1442 1442 1441 1443 1443 1445 1448 1451 1454 1458 1461 1463 1466 1468 1469 1471 1472 1473 1475 1474 1478 1478 1477 1477 1475 1477 1479 1481 1485 1488 1490 1491 1493
1462 1458 1455 1450 1446 1441 1437 1436 1436 1436 1435 1436 1436 1437 1436 1439 1442 1447 1450 1454 1457 1460 1462 1464 1465 1467 1470 1472 1473 1476 1477 1480 1480 1478 1477 1478 1479 1481 1483 1486 1489 1491 1493
1457 1453 1449 1444 1438 1434 1429 1425 1427 1428 1428 1429 1431 1432 1433 1435 1439 1441 1445 1449 1452 1455 1458 1460 1462 1465 1469 1471 1472 1474 1478 1478 1480 1480 1479 1480 1480 1482 1484 1487 1488 1488 1490
1454 1449 1444 1439 1434 1429 1423 1420 1421 1421 1422 1423 1426 1428 1430 1432 1433 1436 1442 1445 1446 1449 1454 1456 1460 1464 1468 1469 1472 1474 1476 1479 1480 1480 1481 1482 1481 1484 1483 1485 1488 1487 1490
1452 1447 1444 1439 1433 1428 1422 1418 1416 1416 1417 1419 1422 1425 1428 1425 1431 1435 1438 1440 1445 1446 1449 1457 1461 1464 1466 1469 1470 1473 1477 1478 1480 1482 1483 1482 1481 1482 1485 1485 1486 1487 1488
1455 1450 1445 1441 1435 1429 1424 1419 1416 1415 1415 1417 1420 1422 1424 1427 1428 1433 1434 1439 1442 1445 1449 1452 1461 1464 1467 1470 1473 1473 1474 1477 1478 1478 1480 1480 1480 1482 1484 1485 1487 1487 1487
1458 1451 1449 1445 1439 1432 1426 1422 1420 1418 1418 1418 1419 1420 1422 1425 1427 1432 1434 1439 1444 1445 1452 1456 1459 1463 1465 1470 1475 1473 1475 1476 1477 1477 1480 1480 1480 1481 1483 1484 1486 1487 1488
1458 1455 1455 1448 1442 1437 1432 1429 1427 1423 1422 1421 1421 1422 1424 1427 1430 1432 1435 1440 1446 1451 1454 1458 1459 1462 1467 1468 1473 1473 1476 1477 1476 1480 1481 1480 1480 1480 1481 1484 1485 1486 1486
1461 1462 1457 1452 1448 1443 1439 1436 1434 1432 1430 1430 1431 1432 1433 1435 1436 1438 1439 1441 1446 1450 1452 1458 1461 1463 1464 1470 1471 1472 1474 1476 1477 1479 1480 1480 1480 1479 1481 1482 1484 1484 1484
1466 1464 1460 1456 1454 1450 1448 1445 1443 1441 1440 1439 1440 1441 1442 1443 1443 1444 1445 1447 1450 1451 1451 1453 1461 1463 1465 1468 1470 1472 1472 1475 1476 1477 1478 1479 1479 1479 1480 1481 1482 1481 1481
1468 1465 1464 1461 1458 1456 1454 1453 1451 1449 1449 1449 1449 1449 1449 1451 1451 1452 1453 1456 1459 1460 1457 1458 1461 1462 1466 1467 1468 1469 1471 1474 1475 1475 1476 1477 1478 1478 1479 1479 1479 1479 1478
1467 1466 1464 1463 1461 1459 1458 1457 1457 1454 1455 1456 1456 1455 1454 1455 1456 1456 1456 1456 1458 1458 1460 1461 1462 1464 1464 1468 1469 1468 1469 1472 1473 1473 1474 1476 1476 1476 1476 1476 1477 1477 1475
1466 1466 1465 1464 1463 1463 1462 1461 1459 1458 1457 1457 1457 1457 1458 1458 1459 1458 1458 1458 1458 1458 1459 1461 1461 1464 1465 1466 1467 1468 1469 1470 1472 1472 1472 1472 1473 1474 1474 1473 1473 1472 1471
1464 1464 1464 1463 1463 1463 1462 1461 1460 1460 1459 1460 1460 1459 1459 1458 1457 1458 1458 1458 1458 1458 1460 1461 1462 1463 1463 1464 1465 1465 1468 1469 1469 1470 1470 1470 1471 1471 1470 1469 1468 1467 1466
1462 1462 1463 1462 1462 1461 1461 1461 1460 1459 1458 1458 1458 1458 1458 1457 1457 1456 1455 1457 1457 1458 1459 1459 1461 1461 1462 1462 1463 1464 1465 1465 1467 1467 1466 1466 1466 1466 1465 1464 1463 1462 1460
1460 1460 1461 1462 1462 1461 1461 1460 1459 1458 1459 1458 1458 1458 1457 1456 1456 1458 1459 1458 1459 1459 1459 1459 1459 1460 1460 1461 1462 1462 1462 1462 1463 1463 1462 1461 1460 1458 1459 1458 1456 1456 1455
1457 1459 1460 1461 1461 1461 1460 1460 1460 1459 1458 1458 1458 1458 1458 1458 1458 1458 1458 1458 1458 1457 1457 1457 1457 1457 1458 1458 1458 1459 1458 1458 1458 1458 1456 1455 1453 1452 1451 1449 1448 1447 1446
1455 1457 1459 1460 1460 1460 1460 1459 1459 1459 1458 1457 1457 1456 1457 1456 1456 1456 1455 1455 1454 1454 1455 1454 1455 1455 1455 1454 1454 1454 1453 1453 1452 1451 1449 1448 1445 1444 1443 1441 1441 1440 1438